COSMOS 397 DEB, 5272

Orbit data source: Space-Track

COSMOS 397 DEB, 5272 is space debris in LEO originally from a launch on Thu, 25 Feb 1971 UTC launched from the Tyuratam Missile And Space Complex (TTMTR). Debris objects in space refer to the collection of defunct objects orbiting the Earth. Examples of debris include non-operational satellites, rocket bodies, and fragments generated from explosions, collisions, or faulty payload assembly.

Loading next visibility...
Identifier
5272, 1971-015BB
Orbit
LEO
Country
Flag of CISCIS
Related business
Manufacturer
Unknown
Mission
Spacecraft
Bus & Motor
Unknown
Mass
Unknown
Launch date (UTC)
1971-02-25 (55 years ago)
Launch vehicle
Unknown
Launch site
Tyuratam Missile And Space Complex (TTMTR)
Object type
Payload
Rocket body
Debris
Shape & HBR
Unknown shape, 0.1 m
Radar Cross Section
Small (<0.1 m²)

Expand to show TLE details & history
Last TLE update: 21 hours ago

TLE from 21 hours ago
0 COSMOS 397 DEB
1 05272U 71015BB  25351.38046551  .00001448  00000-0  52238-3 0  9998
2 05272  65.5571  16.9531 0730651  16.1242 346.1770 13.42920000621592
Epoch: 2025-12-17T09:07Z
TLE epoch observation values (Epoch: 2025-12-17T09:07:52.220Z)
Latitude
0.00008°
Longitude
153.7344°
Altitude
572.394 km
Speed
7.838 km/s
True Right ascension
01h 07m 48s
True Declination
0° 00' 00"
Sunlit
Object was in daylight at epoch
Visualization orbit readout
Latitude
Unknown
Longitude
Unknown
Altitude
Unknown
Speed
Unknown
Apparent Right ascension
Unknown
Apparent Declination
Unknown
Sunlit
N/A
Visualization observer readout
Local Sidereal Time
04:38:24
Azimuth
Unknown
Elevation
Unknown
Doppler factor
Unknown
Orbital elements
Apogee altitude
1,643.153 km
Perigee altitude
550.812 km
Semi-major axis
7,475.12 km
Eccentricity
0.07307
Inclination
65.5571°
RAAN
16.9531°
Arg. of periapsis
16.1242°
True anomaly
343.9833°
Mean anomaly
346.177°
Eccentric anomaly
345.1006°
Mean motion
3.35827 °/min
Orbital period
107.2 mins
BSTAR
0.00052238
Loading maneuver chart data...
Computing Atmospheric mass density...

Documentation

Showing up to 5 results
|